Back to catalog

KUIPER-00434

AliveCommunicationsLEO
NORAD 68938·PAYLOAD·🇺🇸 United States

Launched Apr 30, 2026 from Guiana Space Centre

Loading…

Next Passes (next 24 hours)

TLE

FreshSource: CelesTrak SupGP

Epoch: Sep 14, 2026, 15:25 UTC

1 68938C 26098V   26257.64282407 -.00046827  00000+0 -66531-2 0  2572
2 68938  51.9011  23.9110 0001617 125.1152 175.3791 14.76510284    13

Track KUIPER-00434 in real time with AllMySat

Download on the App Store